Location: Fontevrault
(47.1823°N, 0.0493°E)
Time: 06:19:43
(UTC+00:00)

USA 245 - Visible Passes

Search period start: 26 October 2021 00:00
Search period end: 05 November 2021 00:00
Orbit: 268 x 1011 km, 97.9° (Epoch: 24 October)

Date Brightness Start Highest point End Pass type
(mag) Time Alt. Az. Time Alt. Az. Time Alt. Az.
26 Oct 6.5 20:28:28 18° N 20:28:28 18° N 20:30:02 10° N visible
26 Oct 7.2 22:06:04 11° NNW 22:06:04 11° NNW 22:06:22 10° NNW visible
27 Oct 6.5 19:14:42 12° NNE 19:14:42 12° NNE 19:15:21 10° NNE visible
27 Oct 6.6 20:52:17 17° N 20:52:17 17° N 20:53:30 10° N visible
28 Oct 6.5 19:38:31 13° NNE 19:38:31 13° NNE 19:39:23 10° NNE visible
28 Oct 6.9 21:16:06 14° NNW 21:16:06 14° NNW 21:16:51 10° NNW visible
29 Oct 6.6 20:02:18 14° N 20:02:18 14° N 20:03:06 10° N visible
29 Oct 7.2 21:39:53 11° NNW 21:39:53 11° NNW 21:40:04 10° NNW visible
30 Oct 6.7 20:26:04 13° N 20:26:04 13° N 20:26:40 10° N visible
31 Oct 6.9 20:49:50 11° N 20:49:50 11° N 20:50:03 10° N visible
